Flag for U.S.A. Weather past 2 weeks in Cedar Rapids, Iowa, U.S.A.

Now
23 °F

Sunny.


Feels Like: 23 °F
Forecast: 2 / 26 °F
Wind: No wind

Location: Cedar Rapids Municipal Airport

Current Time: Mar 2, 2015 at 2:00:33 PM

Latest Report: Mar 2, 2015 at 12:52 PM


Visibility: 9 mi

Pressure: 30.50 "Hg

Humidity: 72%

Dew point: 15 °F

Location of Cedar RapidsLocation

Historic Weather in Cedar Rapids — Graph

°F

Cedar Rapids temperature yesterday

Maximum temperature yesterday: 27 °F (at 2:52 PM)
Minimum temperature yesterday: 9 °F (at 12:52 AM)
Average temperature yesterday: 17 °F

Past Weeks' High & Low Weather Summary

 TemperatureHumidityPressure
High36 °F (Feb 24, 12:52 PM)96% (Feb 21, 3:52 AM)30.84 "Hg (Feb 21, 3:52 AM)
Low-18 °F (Feb 27, 4:52 AM)48% (Feb 23, 3:52 PM)29.79 "Hg (Feb 24, 1:52 PM)
Average10 °F72%30.31 "Hg
* Reported Feb 15 12:52 PM — Mar 2 12:52 PM, Cedar Rapids, Weather by CustomWeather, © 2015

Note: Actual official high and low records may vary slightly from our data, if they occured in-between our weather recording intervals... More about our weather records

Advertising

Cedar Rapids weather history for previous 24 hours

 ConditionsComfort  
Time TempWeatherWind HumidityBarometerVisibility
12:52 PM
Mon, Mar 2
23 °FSunny.No wind72%30.50 "Hg9 mi
11:52 AM21 °FSunny.3 mph74%30.53 "Hg10 mi
10:52 AM18 °FSunny.6 mph77%30.55 "Hg10 mi
9:52 AM16 °FSunny.9 mph80%30.57 "Hg10 mi
8:52 AM12 °FSunny.6 mph80%30.57 "Hg8 mi
7:52 AM7 °FSunny.6 mph87%30.57 "Hg8 mi
6:52 AM7 °FSunny.8 mph87%30.55 "Hg8 mi
5:52 AM6 °FClear.9 mph91%30.55 "Hg10 mi
4:52 AM7 °FClear.12 mph87%30.53 "Hg10 mi
3:52 AM6 °FClear.8 mph91%30.51 "Hg10 mi
2:52 AM8 °FClear.12 mph91%30.50 "Hg10 mi
1:52 AM13 °FClear.8 mph84%30.50 "Hg10 mi
12:52 AM13 °FClear.10 mph81%30.49 "Hg10 mi
11:52 PM
Sun, Mar 1
14 °FClear.9 mph80%30.47 "Hg10 mi
10:52 PM14 °FClear.10 mph84%30.45 "Hg10 mi
9:52 PM14 °FClear.8 mph84%30.43 "Hg10 mi
8:52 PM13 °FClear.7 mph84%30.42 "Hg10 mi
7:52 PM15 °FClear.9 mph80%30.42 "Hg10 mi
6:52 PM17 °FClear.9 mph76%30.41 "Hg10 mi
5:52 PM21 °FSunny.13 mph74%30.38 "Hg10 mi
4:52 PM24 °FSunny.17 mph75%30.37 "Hg9 mi
3:52 PM27 °FPassing clouds.15 mph75%30.35 "Hg8 mi
2:52 PM27 °FPartly sunny.16 mph75%30.36 "Hg8 mi
Weather by CustomWeather, © 2015

See weather overviewHow to use our weather pages